Weather History for KMRY - February, 2014

Change the Weather History Date:

Sunday, February 23, 2014

  Actual Average Record
Temperature  
Mean Temperature 52 °F 53 °F  
Max Temperature 58 °F 61 °F 66 °F (2009)
Min Temperature 45 °F 45 °F 40 °F (2007)
Degree Days  
Heating Degree Days 13    
Month to date heating degree days 265  
Since 1 July heating degree days 1768  
Cooling Degree Days 0    
Month to date cooling degree days 0  
Year to date cooling degree days 2  
Growing Degree Days 2 (Base 50)    
Moisture  
Dew Point 47 °F    
Average Humidity 80    
Maximum Humidity 93    
Minimum Humidity 67    
Precipitation  
Precipitation 0.00 in - - ()
Month to date precipitation 1.59  
Year to date precipitation 1.66  
Since 1 July precipitation 2.94  
Sea Level Pressure  
Sea Level Pressure 30.02 in    
Wind  
Wind Speed 4 mph (SW)    
Max Wind Speed 10 mph    
Max Gust Speed 14 mph    
Visibility 7 miles    
Events Fog    
T = Trace of Precipitation, MM = Missing Value Source: NWS Daily Summary

Daily Weather History Graph

Daily Weather History Graph

Search for Another Location

Airport or City:

Trip Planner

Search our weather history database for the weather conditions in past years. The results will help you decide how hot, cold, wet, or windy it might be!

Date:

Astronomy

Feb. 23, 2014 Rise Set
Actual Time 6:45 AM PST 5:56 PM PST
Civil Twilight 6:19 AM PST 6:22 PM PST
Nautical Twilight 5:49 AM PST 6:52 PM PST
Astronomical Twilight 5:19 AM PST 7:22 PM PST
Moon 1:44 AM PST (2/23) 12:08 PM PST (2/23)
Length of Visible Light 12h 02m
Length of Day
11h 10m
Last Quarter, 38% of the Moon is Illuminated
Feb 23
Last Quarter
Mar 1
New
Mar 8
First Quarter
Mar 16
Full
Mar 23
Last Quarter

Hourly Weather History & Observations

Time (PST) Temp. Dew Point Humidity Pressure Visibility Wind Dir Wind Speed Gust Speed Precip Events Conditions
12:54 AM 51.1 °F 48.0 °F 89% 30.03 in 9.0 mi SW 3.5 mph - N/A   Overcast
1:54 AM 52.0 °F 48.9 °F 89% 30.03 in 7.0 mi WSW 3.5 mph - N/A   Overcast
2:54 AM 52.0 °F 48.9 °F 89% 30.02 in 7.0 mi Calm Calm - N/A   Overcast
3:54 AM 52.0 °F 48.9 °F 89% 30.02 in 8.0 mi West 3.5 mph - N/A   Overcast
4:47 AM 51.8 °F 46.4 °F 82% 29.99 in 10.0 mi SW 4.6 mph - N/A   Overcast
4:54 AM 51.1 °F 46.9 °F 86% 30.03 in 10.0 mi SSW 3.5 mph - N/A   Overcast
5:54 AM 50.0 °F 46.0 °F 86% 30.04 in 5.0 mi SSW 3.5 mph - N/A   Overcast
6:54 AM 48.9 °F 45.0 °F 86% 30.04 in 10.0 mi Calm Calm - N/A   Overcast
7:45 AM 48.2 °F 44.6 °F 87% 30.01 in 9.0 mi ESE 6.9 mph - N/A   Overcast
7:54 AM 48.9 °F 46.0 °F 90% 30.05 in 8.0 mi East 5.8 mph - N/A   Overcast
8:54 AM 50.0 °F 46.9 °F 89% 30.06 in 10.0 mi Calm Calm - N/A   Overcast
9:27 AM 51.8 °F 46.4 °F 82% 30.01 in 10.0 mi Calm Calm - N/A   Scattered Clouds
9:54 AM 53.1 °F 46.9 °F 80% 30.05 in 10.0 mi Calm Calm - N/A   Clear
10:54 AM 55.9 °F 46.0 °F 69% 30.05 in 10.0 mi West 6.9 mph - N/A   Clear
11:54 AM 57.0 °F 46.9 °F 69% 30.04 in 10.0 mi West 6.9 mph - N/A   Clear
12:54 PM 55.9 °F 48.0 °F 75% 30.03 in 9.0 mi NW 6.9 mph - N/A   Clear
1:54 PM 57.0 °F 48.9 °F 74% 30.01 in 10.0 mi NW 6.9 mph - N/A   Clear
2:54 PM 57.9 °F 50.0 °F 75% 30.01 in 10.0 mi NNW 5.8 mph - N/A   Clear
3:54 PM 57.0 °F 50.0 °F 77% 30.01 in 10.0 mi WNW 8.1 mph - N/A   Clear
4:54 PM 57.9 °F 48.9 °F 72% 30.00 in 10.0 mi NW 4.6 mph - N/A   Clear
5:54 PM 53.1 °F 48.0 °F 83% 30.02 in 10.0 mi West 4.6 mph - N/A   Clear
6:54 PM 52.0 °F 46.9 °F 83% 30.03 in 10.0 mi Calm Calm - N/A   Clear
7:54 PM 48.9 °F 46.0 °F 90% 30.03 in 10.0 mi Calm Calm - N/A   Clear
8:34 PM 48.2 °F 44.6 °F 87% 29.99 in 10.0 mi East 5.8 mph - N/A   Partly Cloudy
8:49 PM 48.2 °F 44.6 °F 87% 29.99 in 10.0 mi East 5.8 mph - N/A   Mostly Cloudy
8:54 PM 48.0 °F 45.0 °F 89% 30.03 in 8.0 mi East 5.8 mph - N/A   Mostly Cloudy
9:12 PM 48.2 °F 46.4 °F 93% 29.99 in 1.8 mi ESE 4.6 mph - N/A   Overcast
9:24 PM 48.2 °F 46.4 °F 93% 29.99 in 0.5 mi SE 3.5 mph - N/A Fog Fog
9:42 PM 48.2 °F 46.4 °F 93% 29.99 in 0.2 mi East 4.6 mph - N/A Fog Fog
9:54 PM 48.0 °F 46.9 °F 96% 30.04 in 0.2 mi East 4.6 mph - N/A Fog Fog
10:29 PM 46.4 °F 46.4 °F 100% 29.99 in 1.0 mi Calm Calm - N/A   Mist
10:35 PM 46.4 °F 46.4 °F 100% 29.99 in 2.0 mi Calm Calm - N/A   Mostly Cloudy
10:45 PM 46.4 °F 46.4 °F 100% 29.99 in 4.0 mi Calm Calm - N/A   Scattered Clouds
10:54 PM 46.0 °F 45.0 °F 96% 30.03 in 3.0 mi Calm Calm - N/A   Partly Cloudy
11:01 PM 46.4 °F 44.6 °F 93% 29.99 in 1.8 mi Calm Calm - N/A   Partly Cloudy
11:10 PM 46.4 °F 44.6 °F 93% 29.99 in 3.0 mi Calm Calm - N/A   Partly Cloudy
11:54 PM 45.0 °F 43.0 °F 93% 30.02 in 10.0 mi Calm Calm - N/A   Clear